W5HRH Weather Reports


Display with metric or nautical units.
time (UTC)temp
F
wind
direction
speed
MPH
gust
MPH
rain 1hr
in
rain 24hr
in
rain mn
in
humidity
%
barometer
mb
20260905171055 91 24 3.0 6.0 0.00 0.01 0.00 64 1015.6
20260905170553 91 22 2.0 6.0 0.00 0.01 0.00 64 1015.5
20260905170058 91 334 0.0 4.0 0.00 0.01 0.00 65 1015.6
20260905165551 91 165 0.0 3.0 0.00 0.01 0.00 65 1015.6
20260905165053 91 163 1.0 3.0 0.00 0.01 0.00 65 1015.7
20260905164553 90 48 0.0 2.0 0.00 0.01 0.00 67 1015.7
20260905164047 90 47 0.0 4.0 0.00 0.01 0.00 65 1015.9
20260905163548 89 47 1.0 4.0 0.00 0.01 0.00 66 1016.0
20260905163045 89 36 1.0 4.0 0.00 0.01 0.00 69 1016.0
20260905162547 89 339 1.0 4.0 0.00 0.01 0.00 71 1016.0
20260905162044 89 336 1.0 4.0 0.00 0.01 0.00 71 1016.0
20260905161544 89 153 0.0 3.0 0.00 0.01 0.00 73 1016.1
20260905161043 89 151 0.0 3.0 0.00 0.01 0.00 73 1016.0
20260905160542 88 159 0.0 3.0 0.00 0.01 0.00 75 1016.0
20260905160047 88 126 0.0 1.0 0.00 0.01 0.00 74 1016.0
20260905155544 88 10 0.0 2.0 0.00 0.01 0.00 75 1016.0
20260905155046 88 12 0.0 2.0 0.00 0.01 0.00 73 1016.0
20260905154542 88 36 0.0 2.0 0.00 0.01 0.00 76 1015.9
20260905154040 88 68 1.0 2.0 0.00 0.01 0.00 76 1016.0
20260905153541 88 163 0.0 2.0 0.00 0.01 0.00 76 1015.9
20260905153039 87 194 0.0 3.0 0.00 0.01 0.00 77 1016.0
20260905152537 87 197 0.0 2.0 0.00 0.01 0.00 79 1016.1
20260905152036 87 350 0.0 3.0 0.00 0.01 0.00 79 1016.0
20260905151536 86 348 0.0 3.0 0.00 0.01 0.00 80 1016.1
20260905151035 87 309 0.0 5.0 0.00 0.01 0.00 81 1016.1
20260905150539 87 307 0.0 5.0 0.00 0.01 0.00 83 1016.1
20260905150036 86 146 0.0 2.0 0.00 0.01 0.00 84 1016.1
20260905145533 86 145 0.0 2.0 0.00 0.01 0.00 85 1016.0
20260905145031 85 144 0.0 1.0 0.00 0.01 0.00 87 1015.9
20260905144535 85 147 0.0 1.0 0.00 0.01 0.00 88 1015.8
20260905144029 84 147 0.0 2.0 0.00 0.01 0.00 88 1015.9
20260905143528 84 148 0.0 2.0 0.00 0.01 0.00 88 1016.0
20260905143031 84 152 0.0 2.0 0.00 0.01 0.00 89 1015.9
20260905142526 84 152 1.0 2.0 0.00 0.01 0.00 89 1015.9
20260905142026 84 153 0.0 2.0 0.00 0.01 0.00 91 1016.0
20260905141525 83 153 0.0 2.0 0.00 0.01 0.00 91 1015.8
20260905141026 83 158 0.0 2.0 0.00 0.01 0.00 92 1015.8
20260905140524 82 159 0.0 2.0 0.00 0.01 0.00 93 1015.7
20260905140022 82 164 0.0 1.0 0.00 0.01 0.00 94 1015.7
20260905135521 82 164 0.0 0.0 0.00 0.01 0.00 95 1015.8
20260905135020 82 164 0.0 0.0 0.00 0.01 0.00 95 1015.7
20260905134521 81 164 0.0 2.0 0.00 0.01 0.00 96 1015.7
20260905134018 81 164 0.0 2.0 0.00 0.01 0.00 97 1015.7
20260905133520 81 164 0.0 2.0 0.00 0.01 0.00 97 1015.6
20260905133015 80 164 0.0 0.0 0.00 0.01 0.00 98 1015.5
20260905132515 80 164 0.0 0.0 0.00 0.01 0.00 97 1015.5
20260905132017 80 164 0.0 0.0 0.00 0.01 0.00 98 1015.5
20260905131526 80 164 0.0 0.0 0.00 0.01 0.00 98 1015.6
20260905131013 80 164 0.0 0.0 0.00 0.01 0.00 98 1015.6
20260905130512 79 164 0.0 0.0 0.00 0.01 0.00 98 1015.7
20260905130010 79 164 0.0 0.0 0.00 0.01 0.00 98 1015.6
20260905125510 79 164 0.0 0.0 0.00 0.01 0.00 98 1015.6
20260905125009 78 163 0.0 0.0 0.00 0.01 0.00 99 1015.5
20260905124509 78 163 0.0 0.0 0.00 0.01 0.00 98 1015.4
20260905124008 77 163 0.0 0.0 0.00 0.01 0.00 97 1015.3
20260905123507 77 163 0.0 0.0 0.00 0.01 0.00 97 1015.3
20260905123006 77 163 0.0 0.0 0.00 0.01 0.00 97 1015.3
20260905122508 77 163 0.0 0.0 0.00 0.01 0.00 96 1015.2
20260905122005 77 163 0.0 0.0 0.00 0.01 0.00 96 1015.2
20260905121505 77 163 0.0 0.0 0.00 0.01 0.00 96 1015.3
20260905121005 77 163 0.0 0.0 0.00 0.01 0.00 96 1015.1
20260905120505 77 163 0.0 0.0 0.00 0.01 0.00 96 1015.1
20260905120004 77 163 0.0 0.0 0.00 0.01 0.00 96 1015.0
20260905115504 77 163 0.0 0.0 0.00 0.01 0.00 96 1014.9
20260905115005 77 163 0.0 0.0 0.00 0.01 0.00 96 1014.8
20260905114505 77 163 0.0 0.0 0.00 0.01 0.00 96 1014.8
20260905114004 77 163 0.0 0.0 0.00 0.01 0.00 96 1014.7
20260905113504 77 163 0.0 0.0 0.00 0.01 0.00 96 1014.6
20260905113003 77 163 0.0 0.0 0.00 0.01 0.00 96 1014.5
20260905112504 77 163 0.0 0.0 0.00 0.01 0.00 96 1014.4
20260905112002 77 163 0.0 0.0 0.00 0.01 0.00 96 1014.6
20260905111502 77 163 0.0 0.0 0.00 0.01 0.00 96 1014.5
20260905111002 77 163 0.0 0.0 0.00 0.01 0.00 96 1014.4
20260905110502 77 163 0.0 0.0 0.00 0.01 0.00 96 1014.4
20260905110001 77 163 0.0 0.0 0.00 0.02 0.00 96 1014.2
20260905105600 77 163 0.0 0.0 0.00 0.02 0.00 96 1014.2
20260905105100 77 163 0.0 0.0 0.00 0.02 0.00 96 1014.2
20260905104558 77 163 0.0 0.0 0.00 0.02 0.00 96 1014.2
20260905104057 77 163 0.0 0.0 0.00 0.02 0.00 96 1014.2
20260905103556 77 163 0.0 0.0 0.00 0.02 0.00 96 1014.2
20260905103055 77 163 0.0 0.0 0.00 0.02 0.00 96 1014.3
20260905102553 77 163 0.0 0.0 0.00 0.02 0.00 96 1014.3
20260905102052 77 163 0.0 0.0 0.00 0.02 0.00 96 1014.4
20260905101552 77 163 0.0 0.0 0.00 0.02 0.00 96 1014.3
20260905101051 77 163 0.0 0.0 0.00 0.02 0.00 96 1014.3
20260905100551 77 163 0.0 0.0 0.00 0.02 0.00 96 1014.3
20260905100104 77 163 0.0 0.0 0.00 0.02 0.00 96 1014.4
20260905095551 77 163 0.0 0.0 0.00 0.02 0.00 96 1014.3
20260905095051 77 163 0.0 0.0 0.00 0.02 0.00 96 1014.4
20260905094551 77 163 0.0 0.0 0.00 0.02 0.00 96 1014.3
20260905094050 77 163 0.0 0.0 0.00 0.02 0.00 96 1014.4
20260905093551 78 163 0.0 0.0 0.00 0.02 0.00 96 1014.3
20260905093056 78 163 0.0 0.0 0.00 0.02 0.00 96 1014.4
20260905092549 78 163 0.0 0.0 0.00 0.02 0.00 96 1014.4
20260905092049 78 163 0.0 0.0 0.00 0.02 0.00 96 1014.5
20260905091559 78 163 0.0 0.0 0.00 0.02 0.00 96 1014.4
20260905091049 78 163 0.0 0.0 0.00 0.02 0.00 96 1014.5
20260905090549 78 163 0.0 0.0 0.00 0.02 0.00 96 1014.3
20260905090049 78 163 0.0 0.0 0.00 0.02 0.00 96 1014.4
20260905085548 78 163 0.0 0.0 0.00 0.02 0.00 96 1014.3
20260905085052 78 163 0.0 0.0 0.00 0.02 0.00 96 1014.2
20260905084552 78 163 0.0 0.0 0.00 0.02 0.00 96 1014.3
20260905084048 78 163 0.0 0.0 0.00 0.02 0.00 96 1014.2
20260905083548 78 163 0.0 0.0 0.00 0.02 0.00 96 1014.2
20260905083047 78 163 0.0 0.0 0.00 0.02 0.00 95 1014.2
20260905082546 78 163 0.0 0.0 0.00 0.02 0.00 96 1014.2
20260905082047 78 163 0.0 0.0 0.00 0.02 0.00 96 1014.1
20260905081549 78 163 0.0 0.0 0.00 0.02 0.00 96 1014.2
20260905081046 78 163 0.0 0.0 0.00 0.02 0.00 95 1014.2
20260905080545 78 163 0.0 0.0 0.00 0.02 0.00 95 1014.2
20260905080053 78 163 0.0 0.0 0.00 0.02 0.00 95 1014.3
20260905075547 78 163 0.0 0.0 0.00 0.02 0.00 95 1014.3
20260905075044 78 163 0.0 0.0 0.00 0.02 0.00 95 1014.3
20260905074544 78 163 0.0 0.0 0.00 0.02 0.00 95 1014.3
20260905074043 78 163 0.0 0.0 0.00 0.02 0.00 95 1014.4
20260905073543 78 163 0.0 0.0 0.00 0.02 0.00 95 1014.4
20260905073042 78 163 0.0 0.0 0.00 0.02 0.00 96 1014.5
20260905072542 78 163 0.0 0.0 0.00 0.02 0.00 95 1014.7
20260905072041 78 163 0.0 0.0 0.00 0.02 0.00 95 1014.7
20260905071541 78 163 0.0 0.0 0.00 0.02 0.00 95 1014.7
20260905071040 78 163 0.0 0.0 0.00 0.02 0.00 95 1014.7
20260905070540 78 163 0.0 0.0 0.00 0.02 0.00 95 1014.8
20260905070040 78 163 0.0 0.0 0.00 0.02 0.00 95 1014.8
20260905065539 78 163 0.0 0.0 0.00 0.02 0.00 95 1014.8
20260905065039 78 163 0.0 0.0 0.00 0.02 0.00 95 1014.9
20260905064546 78 163 0.0 0.0 0.00 0.02 0.00 95 1014.8
20260905064039 78 163 0.0 0.0 0.00 0.02 0.00 95 1014.7
20260905063542 78 163 0.0 0.0 0.00 0.02 0.00 95 1014.8
20260905063047 78 163 0.0 0.0 0.00 0.02 0.00 95 1015.0
20260905062536 78 163 0.0 0.0 0.00 0.02 0.00 95 1015.0
20260905062036 79 163 0.0 0.0 0.00 0.02 0.00 95 1015.0
20260905061545 79 163 0.0 1.0 0.00 0.02 0.00 95 1015.2
20260905061037 79 163 0.0 1.0 0.00 0.02 0.00 95 1015.1
20260905060536 79 163 0.0 1.0 0.00 0.02 0.00 95 1015.0
20260905060038 79 163 0.0 1.0 0.00 0.02 0.00 95 1015.0
20260905055535 79 163 0.0 1.0 0.00 0.02 0.00 95 1015.0
20260905055037 79 163 0.0 3.0 0.00 0.02 0.00 95 1015.0
20260905054535 79 163 0.0 3.0 0.00 0.02 0.00 96 1015.0
20260905054034 79 140 1.0 3.0 0.00 0.02 0.00 96 1015.0
20260905053534 78 360 0.0 2.0 0.00 0.02 0.00 96 1015.0
20260905053036 79 360 0.0 2.0 0.00 0.02 0.00 96 1015.1
20260905052532 79 355 0.0 1.0 0.00 0.02 0.00 96 1015.1
20260905052032 79 355 0.0 1.0 0.00 0.02 0.00 96 1015.1
20260905051532 79 355 0.0 1.0 0.00 0.02 0.00 96 1015.2
20260905051031 78 355 0.0 1.0 0.00 0.02 0.00 96 1015.3
20260905050531 78 355 0.0 1.0 0.00 0.02 0.00 96 1015.2
20260905050030 78 355 0.0 1.0 0.00 0.02 0.00 96 1015.1
20260905045529 78 355 0.0 0.0 0.00 0.03 0.02 95 1015.1
20260905045029 78 355 0.0 0.0 0.00 0.03 0.02 96 1015.1
20260905044529 78 355 0.0 0.0 0.00 0.03 0.02 95 1015.1
20260905044030 78 355 0.0 0.0 0.00 0.03 0.02 96 1015.0
20260905043529 78 355 0.0 0.0 0.00 0.03 0.02 96 1015.1
20260905043029 78 355 0.0 0.0 0.00 0.03 0.02 95 1015.1
20260905042530 78 355 0.0 0.0 0.00 0.03 0.02 95 1015.1
20260905042028 79 355 0.0 0.0 0.00 0.03 0.02 95 1015.2
20260905041529 79 355 0.0 1.0 0.00 0.03 0.02 96 1015.2
20260905041029 79 355 0.0 1.0 0.00 0.03 0.02 96 1015.2
20260905040528 78 346 0.0 1.0 0.00 0.03 0.02 96 1015.2
20260905040028 78 342 0.0 1.0 0.00 0.03 0.02 96 1015.3
20260905035529 78 342 0.0 0.0 0.00 0.03 0.02 95 1015.3
20260905035027 78 342 0.0 0.0 0.00 0.03 0.02 96 1015.3
20260905034528 78 342 0.0 0.0 0.00 0.03 0.02 95 1015.4
20260905034031 78 342 0.0 0.0 0.00 0.03 0.02 95 1015.4
20260905033528 78 342 0.0 0.0 0.00 0.03 0.02 95 1015.5
20260905033034 78 342 0.0 0.0 0.00 0.03 0.02 95 1015.5
20260905032527 78 342 0.0 0.0 0.00 0.03 0.02 95 1015.5
20260905032026 78 342 0.0 0.0 0.00 0.03 0.02 95 1015.4
20260905031530 78 342 0.0 0.0 0.00 0.03 0.02 95 1015.5
20260905031026 78 342 0.0 0.0 0.00 0.03 0.02 95 1015.6
20260905030529 78 342 0.0 0.0 0.00 0.03 0.02 95 1015.6
20260905030034 78 342 0.0 0.0 0.00 0.03 0.02 95 1015.5
20260905025525 78 342 0.0 0.0 0.00 0.03 0.02 95 1015.4
20260905025028 78 342 0.0 0.0 0.00 0.03 0.02 95 1015.5
20260905024531 78 342 0.0 0.0 0.00 0.03 0.02 95 1015.5
20260905024025 78 342 0.0 0.0 0.00 0.03 0.02 95 1015.4
20260905023526 77 342 0.0 0.0 0.00 0.03 0.02 94 1015.2
20260905023026 77 342 0.0 0.0 0.00 0.03 0.02 94 1015.2
20260905022525 77 342 0.0 0.0 0.00 0.03 0.02 94 1015.2
20260905022025 77 342 0.0 1.0 0.00 0.03 0.02 94 1015.1
20260905021525 77 342 0.0 1.0 0.00 0.03 0.02 94 1015.0
20260905021024 77 340 0.0 0.0 0.00 0.03 0.02 94 1015.0
20260905020524 77 340 0.0 0.0 0.00 0.03 0.02 94 1014.8
20260905020045 77 340 0.0 0.0 0.00 0.03 0.02 94 1014.8
20260905015524 77 340 0.0 0.0 0.00 0.03 0.02 94 1014.8
20260905015024 77 340 0.0 0.0 0.00 0.03 0.02 94 1014.9
20260905014524 77 339 0.0 0.0 0.00 0.03 0.02 94 1014.8
20260905014024 77 340 0.0 0.0 0.00 0.03 0.02 94 1014.7
20260905013523 77 340 0.0 0.0 0.00 0.03 0.02 94 1014.6
20260905013027 77 340 0.0 2.0 0.00 0.03 0.02 93 1014.4
20260905012523 77 340 0.0 2.0 0.00 0.03 0.02 93 1014.3
20260905012024 77 340 0.0 2.0 0.00 0.03 0.02 93 1014.4
20260905011522 77 340 0.0 0.0 0.00 0.03 0.02 92 1014.4
20260905011023 77 340 0.0 3.0 0.00 0.03 0.02 92 1014.4
20260905010523 77 340 0.0 3.0 0.00 0.03 0.02 92 1014.5
20260905010023 76 337 1.0 3.0 0.01 0.03 0.02 91 1014.4
20260905005527 76 323 0.0 4.0 0.01 0.04 0.02 90 1014.4
20260905005025 77 329 1.0 10.0 0.01 0.04 0.02 90 1014.5
20260905004520 77 285 1.0 13.0 0.01 0.04 0.02 89 1014.5
20260905004019 78 280 3.0 13.0 0.01 0.04 0.02 89 1014.5
20260905003519 79 277 2.0 5.0 0.01 0.04 0.02 90 1014.5
20260905003019 79 273 1.0 4.0 0.01 0.04 0.02 90 1014.5
20260905002520 80 269 1.0 4.0 0.01 0.04 0.02 87 1014.6
20260905002020 81 229 0.0 19.0 0.01 0.04 0.02 85 1014.5
20260905001518 84 211 4.0 19.0 0.01 0.04 0.02 81 1014.4
20260905001017 88 178 7.0 12.0 0.01 0.04 0.02 74 1013.9
20260905000517 89 46 4.0 10.0 0.01 0.04 0.02 70 1013.8
20260905000017 89 67 2.0 8.0 0.00 0.03 0.01 69 1013.4
20260904235516 89 49 4.0 6.0 0.00 0.03 0.01 69 1013.5
20260904235020 89 46 0.0 7.0 0.00 0.03 0.01 70 1013.7
20260904234516 89 63 0.0 7.0 0.00 0.03 0.01 70 1013.7
20260904234016 89 54 1.0 5.0 0.00 0.03 0.01 70 1013.6
20260904233516 90 28 2.0 10.0 0.00 0.03 0.01 69 1013.6
20260904233016 90 80 4.0 10.0 0.00 0.03 0.01 69 1013.6
20260904232520 90 25 3.0 9.0 0.00 0.03 0.01 69 1013.7
20260904232017 90 49 3.0 9.0 0.00 0.03 0.01 69 1013.6
20260904231517 90 54 2.0 9.0 0.00 0.03 0.01 69 1013.6
20260904231015 90 360 2.0 8.0 0.00 0.03 0.01 69 1013.6
20260904230517 90 87 3.0 8.0 0.00 0.03 0.01 69 1013.6
20260904230015 90 52 2.0 8.0 0.00 0.03 0.01 69 1013.5
20260904225514 90 9 3.0 9.0 0.00 0.03 0.01 69 1013.4
20260904225014 90 44 3.0 9.0 0.00 0.03 0.01 69 1013.5
20260904224519 90 51 2.0 6.0 0.00 0.03 0.01 68 1013.4
20260904224015 90 59 1.0 5.0 0.00 0.03 0.01 69 1013.4
20260904223515 90 57 1.0 9.0 0.00 0.03 0.01 69 1013.3
20260904223020 90 15 3.0 10.0 0.00 0.03 0.01 68 1013.3
20260904222517 91 348 2.0 9.0 0.00 0.03 0.01 65 1013.6
20260904222012 92 74 4.0 9.0 0.00 0.03 0.01 64 1013.7
20260904221512 92 43 2.0 9.0 0.00 0.03 0.01 64 1013.6
20260904221012 92 136 2.0 4.0 0.00 0.03 0.01 60 1013.6
20260904220512 92 103 0.0 3.0 0.00 0.03 0.01 61 1013.7
20260904220012 92 9 0.0 3.0 0.00 0.03 0.01 62 1013.8
20260904215511 92 80 0.0 7.0 0.00 0.03 0.01 62 1013.7
20260904215012 92 134 3.0 7.0 0.00 0.03 0.01 63 1013.6
20260904214512 92 150 1.0 6.0 0.00 0.03 0.01 63 1013.6
20260904214010 92 128 3.0 7.0 0.00 0.03 0.01 61 1013.5
20260904213513 92 170 2.0 6.0 0.00 0.03 0.01 61 1013.6
20260904213022 92 156 4.0 6.0 0.00 0.03 0.01 61 1013.6
20260904212509 92 176 0.0 4.0 0.00 0.03 0.01 62 1013.7
20260904212007 93 117 1.0 6.0 0.00 0.03 0.01 59 1013.8
20260904211506 92 79 2.0 5.0 0.00 0.03 0.01 62 1013.9
20260904211007 92 136 0.0 2.0 0.00 0.03 0.01 64 1013.8
20260904210504 92 82 0.0 3.0 0.00 0.03 0.01 67 1013.9
20260904210008 91 81 0.0 3.0 0.00 0.04 0.01 67 1014.1
20260904205502 91 82 0.0 5.0 0.00 0.04 0.01 65 1014.3
20260904205003 91 81 1.0 5.0 0.00 0.04 0.01 67 1014.3
20260904204601 91 54 1.0 4.0 0.00 0.04 0.01 65 1014.3
20260904204059 91 171 0.0 3.0 0.00 0.04 0.01 67 1014.5
20260904203559 90 173 0.0 3.0 0.00 0.04 0.01 69 1014.6
20260904203106 90 176 0.0 3.0 0.00 0.04 0.01 69 1014.7
20260904202558 90 176 0.0 6.0 0.00 0.04 0.01 70 1014.9
20260904202056 90 205 1.0 6.0 0.00 0.04 0.01 70 1015.0
20260904201555 89 160 3.0 6.0 0.00 0.04 0.01 71 1015.0
20260904201055 89 100 1.0 4.0 0.00 0.04 0.01 73 1014.8
20260904200557 89 112 1.0 5.0 0.00 0.04 0.01 73 1014.9
20260904200109 88 175 0.0 3.0 0.00 0.04 0.01 73 1014.9
20260904195555 88 175 1.0 3.0 0.00 0.07 0.01 72 1015.0
20260904195054 88 120 0.0 5.0 0.00 0.07 0.01 74 1015.0
20260904194558 88 180 2.0 5.0 0.00 0.07 0.01 76 1015.0
20260904194053 87 151 1.0 4.0 0.00 0.07 0.01 77 1015.1
20260904193554 87 132 3.0 5.0 0.00 0.07 0.01 75 1015.3
20260904193054 86 159 0.0 3.0 0.00 0.07 0.01 79 1015.4
20260904192552 86 143 1.0 3.0 0.00 0.07 0.01 80 1015.4
20260904192053 85 116 0.0 1.0 0.00 0.07 0.01 83 1015.5
20260904191553 84 90 0.0 1.0 0.00 0.07 0.01 85 1015.4
20260904191053 83 88 0.0 1.0 0.00 0.07 0.01 87 1015.7
20260904190552 82 88 0.0 1.0 0.00 0.07 0.01 88 1015.8
20260904190052 81 104 0.0 2.0 0.00 0.07 0.01 89 1016.0
20260904185552 81 61 0.0 2.0 0.00 0.13 0.01 91 1016.1
20260904185052 81 162 0.0 1.0 0.00 0.13 0.01 92 1016.2
20260904184552 80 167 0.0 1.0 0.00 0.13 0.01 93 1016.1
20260904184052 80 167 0.0 1.0 0.00 0.13 0.01 93 1016.2
20260904183552 80 167 0.0 1.0 0.00 0.13 0.01 93 1016.5
20260904183052 79 167 0.0 3.0 0.00 0.13 0.01 92 1016.5
20260904182551 79 167 0.0 3.0 0.00 0.13 0.01 93 1016.5
20260904182051 79 171 0.0 4.0 0.00 0.13 0.01 92 1016.7
20260904181555 79 118 0.0 2.0 0.00 0.13 0.01 92 1016.7
20260904181052 79 117 0.0 2.0 0.00 0.13 0.01 92 1016.9
20260904180554 79 191 0.0 1.0 0.00 0.13 0.01 92 1016.9
20260904180051 79 195 0.0 3.0 0.00 0.13 0.01 92 1016.9
20260904175551 79 195 0.0 3.0 0.00 0.27 0.01 92 1017.0
20260904175050 79 327 0.0 4.0 0.00 0.27 0.01 92 1017.0
20260904174604 78 327 1.0 4.0 0.00 0.27 0.01 90 1017.0
20260904174049 78 5 0.0 5.0 0.00 0.27 0.01 90 1017.1
20260904173548 79 15 1.0 4.0 0.00 0.27 0.01 90 1017.1
20260904173101 79 164 0.0 1.0 0.00 0.27 0.01 90 1017.0
20260904172548 79 164 0.0 3.0 0.00 0.27 0.01 89 1016.7
20260904172048 79 219 0.0 1.0 0.00 0.27 0.01 88 1016.9
20260904171558 80 222 0.0 2.0 0.00 0.27 0.01 87 1017.1